Location: Waco, TX
(31.5480°N, 97.1670°W)
Time: 00:35:39
(UTC-06:00)

ISS - Pass Details

Date: 19 January 2018
Orbit: 402 x 407 km, 51.6° (Epoch: 21 January)

Event Time Altitude Azimuth Distance (km) Brightness Sun altitude
Rises 20:50:03 0° 225° (SW) 2,298 - -37.7°
Reaches altitude 10° 20:52:07 10° 225° (SW) 1,443 - -38.1°
Maximum altitude 20:55:21 86° 314° (NW) 405 - -38.8°
Drops below altitude 10° 20:58:36 10° 44° (NE) 1,451 - -39.5°
Sets 21:00:41 0° 45° (NE) 2,313 - -40.0°
